Year,Month,Day,Hour,Minute,Value (Times are PST for temperature in C)
2006,04,22,00,00,3.70
2006,04,22,00,01,3.70
2006,04,22,00,02,3.60
2006,04,22,00,03,3.60
2006,04,22,00,04,3.50
2006,04,22,00,05,3.50
2006,04,22,00,06,3.50
2006,04,22,00,07,3.40
2006,04,22,00,08,3.40
2006,04,22,00,09,3.40
2006,04,22,00,10,3.40
2006,04,22,00,11,3.40
2006,04,22,00,12,3.50
2006,04,22,00,13,3.50
2006,04,22,00,14,3.50
2006,04,22,00,15,3.50
2006,04,22,00,16,3.60
2006,04,22,00,17,3.60
2006,04,22,00,18,3.60
2006,04,22,00,19,3.50
2006,04,22,00,20,3.40
2006,04,22,00,21,3.30
2006,04,22,00,22,3.20
2006,04,22,00,23,3.20
2006,04,22,00,24,3.10
2006,04,22,00,25,3.10
2006,04,22,00,26,3.10
2006,04,22,00,27,3.10
2006,04,22,00,28,3.10
2006,04,22,00,29,2.90
2006,04,22,00,30,2.90
2006,04,22,00,31,2.90
2006,04,22,00,32,2.90
2006,04,22,00,33,2.90
2006,04,22,00,34,2.80
2006,04,22,00,35,2.80
2006,04,22,00,36,2.80
2006,04,22,00,37,2.80
2006,04,22,00,38,2.80
2006,04,22,00,39,2.70
2006,04,22,00,40,2.70
2006,04,22,00,41,2.70
2006,04,22,00,42,2.70
2006,04,22,00,43,2.70
2006,04,22,00,44,2.70
2006,04,22,00,45,2.70
2006,04,22,00,46,2.80
2006,04,22,00,47,2.80
2006,04,22,00,48,2.80
2006,04,22,00,49,2.80
2006,04,22,00,50,2.80
2006,04,22,00,51,2.80
2006,04,22,00,52,2.80
2006,04,22,00,53,2.90
2006,04,22,00,54,2.90
2006,04,22,00,55,2.90
2006,04,22,00,56,2.90
2006,04,22,00,57,3.00
2006,04,22,00,58,3.10
2006,04,22,00,59,3.10
2006,04,22,01,00,3.10
2006,04,22,01,01,3.20
2006,04,22,01,02,3.20
2006,04,22,01,03,3.20
2006,04,22,01,04,3.20
2006,04,22,01,05,3.20
2006,04,22,01,06,3.30
2006,04,22,01,07,3.30
2006,04,22,01,08,3.30
2006,04,22,01,09,3.30
2006,04,22,01,10,3.30
2006,04,22,01,11,3.30
2006,04,22,01,12,3.30
2006,04,22,01,13,3.30
2006,04,22,01,14,3.30
2006,04,22,01,15,3.30
2006,04,22,01,16,3.30
2006,04,22,01,17,3.20
2006,04,22,01,18,3.20
2006,04,22,01,19,3.20
2006,04,22,01,20,3.20
2006,04,22,01,21,3.20
2006,04,22,01,22,3.20
2006,04,22,01,23,3.10
2006,04,22,01,24,3.10
2006,04,22,01,25,3.10
2006,04,22,01,26,3.10
2006,04,22,01,27,3.10
2006,04,22,01,28,3.00
2006,04,22,01,29,2.90
2006,04,22,01,30,2.90
2006,04,22,01,31,2.90
2006,04,22,01,32,2.90
2006,04,22,01,33,2.90
2006,04,22,01,34,2.80
2006,04,22,01,35,2.80
2006,04,22,01,36,2.70
2006,04,22,01,37,2.70
2006,04,22,01,38,2.70
2006,04,22,01,39,2.60
2006,04,22,01,40,2.60
2006,04,22,01,41,2.60
2006,04,22,01,42,2.60
2006,04,22,01,43,2.50
2006,04,22,01,44,2.50
2006,04,22,01,45,2.50
2006,04,22,01,46,2.40
2006,04,22,01,47,2.40
2006,04,22,01,48,2.40
2006,04,22,01,49,2.40
2006,04,22,01,50,2.30
2006,04,22,01,51,2.30
2006,04,22,01,52,2.30
2006,04,22,01,53,2.30
2006,04,22,01,54,2.30
2006,04,22,01,55,2.30
2006,04,22,01,56,2.20
2006,04,22,01,57,2.20
2006,04,22,01,58,2.20
2006,04,22,01,59,2.20
2006,04,22,02,00,2.20
2006,04,22,02,01,2.10
2006,04,22,02,02,2.10
2006,04,22,02,03,2.00
2006,04,22,02,04,2.00
2006,04,22,02,05,2.00
2006,04,22,02,06,1.90
2006,04,22,02,07,1.90
2006,04,22,02,08,1.90
2006,04,22,02,09,1.80
2006,04,22,02,10,1.80
2006,04,22,02,11,1.80
2006,04,22,02,12,1.80
2006,04,22,02,13,1.80
2006,04,22,02,14,1.80
2006,04,22,02,15,1.80
2006,04,22,02,16,1.80
2006,04,22,02,17,1.80
2006,04,22,02,18,1.80
2006,04,22,02,19,1.80
2006,04,22,02,20,1.80
2006,04,22,02,21,1.80
2006,04,22,02,22,1.80
2006,04,22,02,23,1.80
2006,04,22,02,24,1.80
2006,04,22,02,25,1.80
2006,04,22,02,26,1.80
2006,04,22,02,27,1.80
2006,04,22,02,28,1.80
2006,04,22,02,29,1.80
2006,04,22,02,30,1.70
2006,04,22,02,31,1.70
2006,04,22,02,32,1.70
2006,04,22,02,33,1.70
2006,04,22,02,34,1.70
2006,04,22,02,35,1.70
2006,04,22,02,36,1.70
2006,04,22,02,37,1.70
2006,04,22,02,38,1.70
2006,04,22,02,39,1.70
2006,04,22,02,40,1.70
2006,04,22,02,41,1.70
2006,04,22,02,42,1.80
2006,04,22,02,43,1.80
2006,04,22,02,44,1.80
2006,04,22,02,45,1.80
2006,04,22,02,46,1.80
2006,04,22,02,47,1.80
2006,04,22,02,48,1.80
2006,04,22,02,49,1.80
2006,04,22,02,50,1.80
2006,04,22,02,51,1.80
2006,04,22,02,52,1.80
2006,04,22,02,53,1.80
2006,04,22,02,54,1.80
2006,04,22,02,55,1.80
2006,04,22,02,56,1.80
2006,04,22,02,57,1.80
2006,04,22,02,58,1.80
2006,04,22,02,59,1.80
2006,04,22,03,00,1.80
2006,04,22,03,01,1.80
2006,04,22,03,02,1.80
2006,04,22,03,03,1.80
2006,04,22,03,04,1.80
2006,04,22,03,05,1.80
2006,04,22,03,06,1.80
2006,04,22,03,07,1.80
2006,04,22,03,08,1.80
2006,04,22,03,09,1.80
2006,04,22,03,10,1.70
2006,04,22,03,11,1.70
2006,04,22,03,12,1.60
2006,04,22,03,13,1.60
2006,04,22,03,14,1.60
2006,04,22,03,15,1.50
2006,04,22,03,16,1.50
2006,04,22,03,17,1.50
2006,04,22,03,18,1.50
2006,04,22,03,19,1.50
2006,04,22,03,20,1.40
2006,04,22,03,21,1.40
2006,04,22,03,22,1.40
2006,04,22,03,23,1.40
2006,04,22,03,24,1.30
2006,04,22,03,25,1.30
2006,04,22,03,26,1.30
2006,04,22,03,27,1.30
2006,04,22,03,28,1.30
2006,04,22,03,29,1.30
2006,04,22,03,30,1.30
2006,04,22,03,31,1.30
2006,04,22,03,32,1.30
2006,04,22,03,33,1.30
2006,04,22,03,34,1.30
2006,04,22,03,35,1.30
2006,04,22,03,36,1.30
2006,04,22,03,37,1.30
2006,04,22,03,38,1.30
2006,04,22,03,39,1.30
2006,04,22,03,40,1.40
2006,04,22,03,41,1.40
2006,04,22,03,42,1.40
2006,04,22,03,43,1.40
2006,04,22,03,44,1.40
2006,04,22,03,45,1.40
2006,04,22,03,46,1.40
2006,04,22,03,47,1.40
2006,04,22,03,48,1.50
2006,04,22,03,49,1.50
2006,04,22,03,50,1.50
2006,04,22,03,51,1.50
2006,04,22,03,52,1.50
2006,04,22,03,53,1.50
2006,04,22,03,54,1.60
2006,04,22,03,55,1.60
2006,04,22,03,56,1.60
2006,04,22,03,57,1.60
2006,04,22,03,58,1.50
2006,04,22,03,59,1.50
2006,04,22,04,00,1.50
2006,04,22,04,01,1.50
2006,04,22,04,02,1.40
2006,04,22,04,03,1.40
2006,04,22,04,04,1.30
2006,04,22,04,05,1.30
2006,04,22,04,06,1.20
2006,04,22,04,07,1.10
2006,04,22,04,08,1.00
2006,04,22,04,09,1.00
2006,04,22,04,10,0.90
2006,04,22,04,11,0.80
2006,04,22,04,12,0.80
2006,04,22,04,13,0.80
2006,04,22,04,14,0.80
2006,04,22,04,15,0.80
2006,04,22,04,16,0.80
2006,04,22,04,17,0.80
2006,04,22,04,18,0.80
2006,04,22,04,19,0.80
2006,04,22,04,20,0.80
2006,04,22,04,21,0.90
2006,04,22,04,22,0.90
2006,04,22,04,23,1.00
2006,04,22,04,24,1.00
2006,04,22,04,25,1.00
2006,04,22,04,26,1.00
2006,04,22,04,27,1.00
2006,04,22,04,28,1.00
2006,04,22,04,29,1.00
2006,04,22,04,30,1.00
2006,04,22,04,31,0.90
2006,04,22,04,32,0.90
2006,04,22,04,33,0.90
2006,04,22,04,34,0.90
2006,04,22,04,35,0.90
2006,04,22,04,36,0.90
2006,04,22,04,37,0.90
2006,04,22,04,38,0.90
2006,04,22,04,39,0.90
2006,04,22,04,40,1.00
2006,04,22,04,41,1.00
2006,04,22,04,42,1.00
2006,04,22,04,43,0.90
2006,04,22,04,44,0.90
2006,04,22,04,45,0.90
2006,04,22,04,46,0.90
2006,04,22,04,47,0.90
2006,04,22,04,48,0.90
2006,04,22,04,49,0.90
2006,04,22,04,50,0.90
2006,04,22,04,51,0.90
2006,04,22,04,52,1.00
2006,04,22,04,53,1.00
2006,04,22,04,54,1.10
2006,04,22,04,55,1.10
2006,04,22,04,56,1.20
2006,04,22,04,57,1.30
2006,04,22,04,58,1.30
2006,04,22,04,59,1.30
2006,04,22,05,00,1.50
2006,04,22,05,01,1.70
2006,04,22,05,02,1.80
2006,04,22,05,03,1.90
2006,04,22,05,04,1.90
2006,04,22,05,05,1.90
2006,04,22,05,06,1.90
2006,04,22,05,07,1.90
2006,04,22,05,08,2.00
2006,04,22,05,09,2.10
2006,04,22,05,10,2.10
2006,04,22,05,11,2.10
2006,04,22,05,12,2.20
2006,04,22,05,13,2.20
2006,04,22,05,14,2.20
2006,04,22,05,15,2.30
2006,04,22,05,16,2.30
2006,04,22,05,17,2.40
2006,04,22,05,18,2.40
2006,04,22,05,19,2.50
2006,04,22,05,20,2.50
2006,04,22,05,21,2.60
2006,04,22,05,22,2.70
2006,04,22,05,23,2.70
2006,04,22,05,24,2.70
2006,04,22,05,25,2.80
2006,04,22,05,26,2.90
2006,04,22,05,27,2.90
2006,04,22,05,28,3.00
2006,04,22,05,29,3.10
2006,04,22,05,30,3.10
2006,04,22,05,31,3.10
2006,04,22,05,32,3.20
2006,04,22,05,33,3.30
2006,04,22,05,34,3.40
2006,04,22,05,35,3.40
2006,04,22,05,36,3.50
2006,04,22,05,37,3.60
2006,04,22,05,38,3.70
2006,04,22,05,39,3.80
2006,04,22,05,40,3.90
2006,04,22,05,41,4.00
2006,04,22,05,42,4.10
2006,04,22,05,43,4.20
2006,04,22,05,44,4.30
2006,04,22,05,45,4.40
2006,04,22,05,46,4.50
2006,04,22,05,47,4.50
2006,04,22,05,48,4.50
2006,04,22,05,49,4.60
2006,04,22,05,50,4.60
2006,04,22,05,51,4.60
2006,04,22,05,52,4.60
2006,04,22,05,53,4.70
2006,04,22,05,54,4.70
2006,04,22,05,55,4.80
2006,04,22,05,56,4.80
2006,04,22,05,57,4.80
2006,04,22,05,58,4.90
2006,04,22,05,59,4.90
2006,04,22,06,00,4.90
2006,04,22,06,01,5.10
2006,04,22,06,02,5.10
2006,04,22,06,03,5.10
2006,04,22,06,04,5.10
2006,04,22,06,05,5.20
2006,04,22,06,06,5.20
2006,04,22,06,07,5.20
2006,04,22,06,08,5.20
2006,04,22,06,09,5.20
2006,04,22,06,10,5.20
2006,04,22,06,11,5.20
2006,04,22,06,12,5.20
2006,04,22,06,13,5.20
2006,04,22,06,14,5.20
2006,04,22,06,15,5.20
2006,04,22,06,16,5.20
2006,04,22,06,17,5.30
2006,04,22,06,18,5.30
2006,04,22,06,19,5.30
2006,04,22,06,20,5.30
2006,04,22,06,21,5.30
2006,04,22,06,22,5.30
2006,04,22,06,23,5.30
2006,04,22,06,24,5.40
2006,04,22,06,25,5.40
2006,04,22,06,26,5.50
2006,04,22,06,27,5.50
2006,04,22,06,28,5.50
2006,04,22,06,29,5.50
2006,04,22,06,30,5.50
2006,04,22,06,31,5.50
2006,04,22,06,32,5.50
2006,04,22,06,33,5.50
2006,04,22,06,34,5.60
2006,04,22,06,35,5.60
2006,04,22,06,36,5.60
2006,04,22,06,37,5.60
2006,04,22,06,38,5.60
2006,04,22,06,39,5.60
2006,04,22,06,40,5.50
2006,04,22,06,41,5.50
2006,04,22,06,42,5.50
2006,04,22,06,43,5.50
2006,04,22,06,44,5.50
2006,04,22,06,45,5.50
2006,04,22,06,46,5.40
2006,04,22,06,47,5.40
2006,04,22,06,48,5.40
2006,04,22,06,49,5.40
2006,04,22,06,50,5.50
2006,04,22,06,51,5.50
2006,04,22,06,52,5.50
2006,04,22,06,53,5.50
2006,04,22,06,54,5.50
2006,04,22,06,55,5.50
2006,04,22,06,56,5.50
2006,04,22,06,57,5.50
2006,04,22,06,58,5.50
2006,04,22,06,59,5.60
2006,04,22,07,00,5.60
2006,04,22,07,01,5.60
2006,04,22,07,02,5.60
2006,04,22,07,03,5.60
2006,04,22,07,04,5.60
2006,04,22,07,05,5.70
2006,04,22,07,06,5.70
2006,04,22,07,07,5.70
2006,04,22,07,08,5.70
2006,04,22,07,09,5.70
2006,04,22,07,10,5.70
2006,04,22,07,11,5.70
2006,04,22,07,12,5.70
2006,04,22,07,13,5.70
2006,04,22,07,14,5.70
2006,04,22,07,15,5.70
2006,04,22,07,16,5.70
2006,04,22,07,17,5.70
2006,04,22,07,18,5.80
2006,04,22,07,19,5.80
2006,04,22,07,20,5.80
2006,04,22,07,21,5.80
2006,04,22,07,22,5.80
2006,04,22,07,23,5.80
2006,04,22,07,24,5.80
2006,04,22,07,25,5.90
2006,04,22,07,26,5.90
2006,04,22,07,27,5.90
2006,04,22,07,28,5.90
2006,04,22,07,29,5.90
2006,04,22,07,30,6.00
2006,04,22,07,31,6.00
2006,04,22,07,32,6.00
2006,04,22,07,33,6.00
2006,04,22,07,34,6.00
2006,04,22,07,35,6.00
2006,04,22,07,36,6.00
2006,04,22,07,37,6.10
2006,04,22,07,38,6.10
2006,04,22,07,39,6.10
2006,04,22,07,40,6.20
2006,04,22,07,41,6.20
2006,04,22,07,42,6.20
2006,04,22,07,43,6.20
2006,04,22,07,44,6.30
2006,04,22,07,45,6.30
2006,04,22,07,46,6.30
2006,04,22,07,47,6.40
2006,04,22,07,48,6.40
2006,04,22,07,49,6.40
2006,04,22,07,50,6.40
2006,04,22,07,51,6.50
2006,04,22,07,52,6.60
2006,04,22,07,53,6.60
2006,04,22,07,54,6.60
2006,04,22,07,55,6.70
2006,04,22,07,56,6.70
2006,04,22,07,57,6.70
2006,04,22,07,58,6.80
2006,04,22,07,59,6.80
2006,04,22,08,00,6.80
2006,04,22,08,01,6.80
2006,04,22,08,02,6.80
2006,04,22,08,03,6.90
2006,04,22,08,04,6.90
2006,04,22,08,05,7.00
2006,04,22,08,06,7.00
2006,04,22,08,07,7.00
2006,04,22,08,08,7.00
2006,04,22,08,09,7.10
2006,04,22,08,10,7.10
2006,04,22,08,11,7.10
2006,04,22,08,12,7.20
2006,04,22,08,13,7.20
2006,04,22,08,14,7.20
2006,04,22,08,15,7.20
2006,04,22,08,16,7.30
2006,04,22,08,17,7.30
2006,04,22,08,18,7.30
2006,04,22,08,19,7.30
2006,04,22,08,20,7.30
2006,04,22,08,21,7.30
2006,04,22,08,22,7.40
2006,04,22,08,23,7.40
2006,04,22,08,24,7.40
2006,04,22,08,25,7.50
2006,04,22,08,26,7.50
2006,04,22,08,27,7.60
2006,04,22,08,28,7.60
2006,04,22,08,29,7.60
2006,04,22,08,30,7.70
2006,04,22,08,31,7.70
2006,04,22,08,32,7.80
2006,04,22,08,33,7.80
2006,04,22,08,34,7.80
2006,04,22,08,35,7.80
2006,04,22,08,36,7.80
2006,04,22,08,37,7.80
2006,04,22,08,38,7.80
2006,04,22,08,39,7.80
2006,04,22,08,40,7.80
2006,04,22,08,41,7.80
2006,04,22,08,42,7.90
2006,04,22,08,43,8.00
2006,04,22,08,44,8.00
2006,04,22,08,45,8.10
2006,04,22,08,46,8.10
2006,04,22,08,47,8.20
2006,04,22,08,48,8.20
2006,04,22,08,49,8.20
2006,04,22,08,50,8.20
2006,04,22,08,51,8.30
2006,04,22,08,52,8.30
2006,04,22,08,53,8.30
2006,04,22,08,54,8.40
2006,04,22,08,55,8.40
2006,04,22,08,56,8.50
2006,04,22,08,57,8.50
2006,04,22,08,58,8.60
2006,04,22,08,59,8.60
2006,04,22,09,00,8.50
2006,04,22,09,01,8.50
2006,04,22,09,02,8.60
2006,04,22,09,03,8.60
2006,04,22,09,04,8.70
2006,04,22,09,05,8.70
2006,04,22,09,06,8.70
2006,04,22,09,07,8.60
2006,04,22,09,08,8.70
2006,04,22,09,09,8.70
2006,04,22,09,10,8.70
2006,04,22,09,11,8.70
2006,04,22,09,12,8.70
2006,04,22,09,13,8.70
2006,04,22,09,14,8.70
2006,04,22,09,15,8.70
2006,04,22,09,16,8.70
2006,04,22,09,17,8.80
2006,04,22,09,18,8.80
2006,04,22,09,19,8.90
2006,04,22,09,20,8.90
2006,04,22,09,21,8.90
2006,04,22,09,22,8.90
2006,04,22,09,23,8.90
2006,04,22,09,24,9.00
2006,04,22,09,25,9.00
2006,04,22,09,26,8.90
2006,04,22,09,27,9.00
2006,04,22,09,28,9.00
2006,04,22,09,29,9.00
2006,04,22,09,30,8.90
2006,04,22,09,31,8.90
2006,04,22,09,32,8.90
2006,04,22,09,33,8.80
2006,04,22,09,34,8.80
2006,04,22,09,35,9.00
2006,04,22,09,36,9.00
2006,04,22,09,37,9.10
2006,04,22,09,38,9.20
2006,04,22,09,39,9.20
2006,04,22,09,40,9.10
2006,04,22,09,41,9.10
2006,04,22,09,42,9.00
2006,04,22,09,43,9.00
2006,04,22,09,44,9.00
2006,04,22,09,45,9.00
2006,04,22,09,46,9.10
2006,04,22,09,47,9.20
2006,04,22,09,48,9.30
2006,04,22,09,49,9.30
2006,04,22,09,50,9.30
2006,04,22,09,51,9.40
2006,04,22,09,52,9.40
2006,04,22,09,53,9.40
2006,04,22,09,54,9.50
2006,04,22,09,55,9.50
2006,04,22,09,56,9.60
2006,04,22,09,57,9.60
2006,04,22,09,58,9.60
2006,04,22,09,59,9.50
2006,04,22,10,00,9.50
2006,04,22,10,01,9.40
2006,04,22,10,02,9.30
2006,04,22,10,03,9.30
2006,04,22,10,04,9.30
2006,04,22,10,05,9.40
2006,04,22,10,06,9.40
2006,04,22,10,07,9.40
2006,04,22,10,08,9.50
2006,04,22,10,09,9.50
2006,04,22,10,10,9.60
2006,04,22,10,11,9.50
2006,04,22,10,12,9.50
2006,04,22,10,13,9.50
2006,04,22,10,14,9.50
2006,04,22,10,15,9.60
2006,04,22,10,16,9.70
2006,04,22,10,17,9.90
2006,04,22,10,18,10.00
2006,04,22,10,19,10.10
2006,04,22,10,20,10.10
2006,04,22,10,21,10.10
2006,04,22,10,22,10.10
2006,04,22,10,23,10.20
2006,04,22,10,24,10.20
2006,04,22,10,25,10.20
2006,04,22,10,26,10.20
2006,04,22,10,27,10.10
2006,04,22,10,28,10.10
2006,04,22,10,29,10.20
2006,04,22,10,30,10.30
2006,04,22,10,31,10.40
2006,04,22,10,32,10.40
2006,04,22,10,33,10.40
2006,04,22,10,34,10.40
2006,04,22,10,35,10.40
2006,04,22,10,36,10.40
2006,04,22,10,37,10.40
2006,04,22,10,38,10.30
2006,04,22,10,39,10.40
2006,04,22,10,40,10.40
2006,04,22,10,41,10.40
2006,04,22,10,42,10.40
2006,04,22,10,43,10.60
2006,04,22,10,44,10.70
2006,04,22,10,45,10.80
2006,04,22,10,46,10.80
2006,04,22,10,47,10.90
2006,04,22,10,48,10.90
2006,04,22,10,49,10.80
2006,04,22,10,50,10.80
2006,04,22,10,51,10.80
2006,04,22,10,52,10.80
2006,04,22,10,53,10.80
2006,04,22,10,54,10.80
2006,04,22,10,55,10.90
2006,04,22,10,56,10.90
2006,04,22,10,57,11.10
2006,04,22,10,58,11.10
2006,04,22,10,59,11.10
2006,04,22,11,00,11.20
2006,04,22,11,01,11.10
2006,04,22,11,02,11.20
2006,04,22,11,03,11.20
2006,04,22,11,04,11.30
2006,04,22,11,05,11.30
2006,04,22,11,06,11.40
2006,04,22,11,07,11.40
2006,04,22,11,08,11.40
2006,04,22,11,09,11.40
2006,04,22,11,10,11.30
2006,04,22,11,11,11.30
2006,04,22,11,12,11.30
2006,04,22,11,13,11.30
2006,04,22,11,14,11.30
2006,04,22,11,15,11.20
2006,04,22,11,16,11.20
2006,04,22,11,17,11.20
2006,04,22,11,18,11.20
2006,04,22,11,19,11.30
2006,04,22,11,20,11.20
2006,04,22,11,21,11.30
2006,04,22,11,22,11.40
2006,04,22,11,23,11.50
2006,04,22,11,24,11.60
2006,04,22,11,25,11.60
2006,04,22,11,26,11.60
2006,04,22,11,27,11.60
2006,04,22,11,28,11.70
2006,04,22,11,29,11.80
2006,04,22,11,30,12.00
2006,04,22,11,31,12.00
2006,04,22,11,32,12.10
2006,04,22,11,33,12.10
2006,04,22,11,34,12.00
2006,04,22,11,35,11.90
2006,04,22,11,36,11.60
2006,04,22,11,37,11.40
2006,04,22,11,38,11.30
2006,04,22,11,39,11.10
2006,04,22,11,40,10.80
2006,04,22,11,41,10.60
2006,04,22,11,42,10.60
2006,04,22,11,43,10.50
2006,04,22,11,44,10.40
2006,04,22,11,45,10.50
2006,04,22,11,46,10.40
2006,04,22,11,47,10.40
2006,04,22,11,48,10.40
2006,04,22,11,49,10.50
2006,04,22,11,50,10.60
2006,04,22,11,51,10.50
2006,04,22,11,52,10.40
2006,04,22,11,53,10.40
2006,04,22,11,54,10.40
2006,04,22,11,55,10.50
2006,04,22,11,56,10.60
2006,04,22,11,57,10.60
2006,04,22,11,58,10.60
2006,04,22,11,59,10.60
2006,04,22,12,00,10.70
2006,04,22,12,01,10.80
2006,04,22,12,02,10.80
2006,04,22,12,03,10.70
2006,04,22,12,04,10.70
2006,04,22,12,05,10.60
2006,04,22,12,06,10.60
2006,04,22,12,07,10.50
2006,04,22,12,08,10.40
2006,04,22,12,09,10.50
2006,04,22,12,10,10.60
2006,04,22,12,11,10.70
2006,04,22,12,12,10.70
2006,04,22,12,13,10.80
2006,04,22,12,14,10.90
2006,04,22,12,15,10.90
2006,04,22,12,16,10.90
2006,04,22,12,17,10.90
2006,04,22,12,18,10.90
2006,04,22,12,19,10.90
2006,04,22,12,20,11.00
2006,04,22,12,21,11.10
2006,04,22,12,22,11.20
2006,04,22,12,23,11.30
2006,04,22,12,24,11.40
2006,04,22,12,25,11.60
2006,04,22,12,26,11.80
2006,04,22,12,27,11.80
2006,04,22,12,28,11.60
2006,04,22,12,29,11.60
2006,04,22,12,30,11.60
2006,04,22,12,31,11.60
2006,04,22,12,32,11.80
2006,04,22,12,33,11.80
2006,04,22,12,34,11.80
2006,04,22,12,35,11.80
2006,04,22,12,36,11.80
2006,04,22,12,37,11.80
2006,04,22,12,38,11.80
2006,04,22,12,39,11.90
2006,04,22,12,40,11.80
2006,04,22,12,41,11.70
2006,04,22,12,42,11.60
2006,04,22,12,43,11.40
2006,04,22,12,44,11.30
2006,04,22,12,45,11.30
2006,04,22,12,46,11.30
2006,04,22,12,47,11.20
2006,04,22,12,48,11.10
2006,04,22,12,49,10.90
2006,04,22,12,50,10.90
2006,04,22,12,51,10.90
2006,04,22,12,52,11.00
2006,04,22,12,53,11.10
2006,04,22,12,54,11.20
2006,04,22,12,55,11.20
2006,04,22,12,56,11.20
2006,04,22,12,57,11.30
2006,04,22,12,58,11.40
2006,04,22,12,59,11.40
2006,04,22,13,00,11.30
2006,04,22,13,01,11.20
2006,04,22,13,02,11.20
2006,04,22,13,03,11.40
2006,04,22,13,04,11.40
2006,04,22,13,05,11.40
2006,04,22,13,06,11.40
2006,04,22,13,07,11.20
2006,04,22,13,08,11.20
2006,04,22,13,09,11.40
2006,04,22,13,10,11.50
2006,04,22,13,11,11.60
2006,04,22,13,12,11.70
2006,04,22,13,13,11.70
2006,04,22,13,14,11.70
2006,04,22,13,15,11.70
2006,04,22,13,16,11.70
2006,04,22,13,17,11.80
2006,04,22,13,18,11.80
2006,04,22,13,19,11.90
2006,04,22,13,20,12.00
2006,04,22,13,21,11.90
2006,04,22,13,22,11.90
2006,04,22,13,23,12.00
2006,04,22,13,24,12.20
2006,04,22,13,25,12.40
2006,04,22,13,26,12.50
2006,04,22,13,27,12.70
2006,04,22,13,28,12.90
2006,04,22,13,29,13.00
2006,04,22,13,30,13.20
2006,04,22,13,31,13.30
2006,04,22,13,32,13.50
2006,04,22,13,33,13.50
2006,04,22,13,34,13.60
2006,04,22,13,35,13.80
2006,04,22,13,36,14.00
2006,04,22,13,37,14.00
2006,04,22,13,38,13.70
2006,04,22,13,39,13.30
2006,04,22,13,40,13.10
2006,04,22,13,41,12.80
2006,04,22,13,42,12.70
2006,04,22,13,43,12.60
2006,04,22,13,44,12.50
2006,04,22,13,45,12.60
2006,04,22,13,46,12.70
2006,04,22,13,47,12.80
2006,04,22,13,48,12.90
2006,04,22,13,49,13.00
2006,04,22,13,50,12.90
2006,04,22,13,51,12.70
2006,04,22,13,52,12.50
2006,04,22,13,53,12.50
2006,04,22,13,54,12.60
2006,04,22,13,55,12.70
2006,04,22,13,56,12.70
2006,04,22,13,57,12.80
2006,04,22,13,58,12.90
2006,04,22,13,59,13.00
2006,04,22,14,00,13.10
2006,04,22,14,01,13.20
2006,04,22,14,02,13.30
2006,04,22,14,03,13.30
2006,04,22,14,04,13.40
2006,04,22,14,05,13.60
2006,04,22,14,06,13.70
2006,04,22,14,07,13.80
2006,04,22,14,08,14.00
2006,04,22,14,09,14.10
2006,04,22,14,10,14.10
2006,04,22,14,11,14.00
2006,04,22,14,12,14.00
2006,04,22,14,13,14.00
2006,04,22,14,14,14.10
2006,04,22,14,15,14.10
2006,04,22,14,16,14.10
2006,04,22,14,17,14.00
2006,04,22,14,18,13.80
2006,04,22,14,19,13.70
2006,04,22,14,20,13.80
2006,04,22,14,21,13.90
2006,04,22,14,22,14.00
2006,04,22,14,23,14.10
2006,04,22,14,24,14.20
2006,04,22,14,25,14.20
2006,04,22,14,26,14.20
2006,04,22,14,27,14.10
2006,04,22,14,28,14.20
2006,04,22,14,29,14.20
2006,04,22,14,30,14.20
2006,04,22,14,31,14.30
2006,04,22,14,32,14.50
2006,04,22,14,33,14.60
2006,04,22,14,34,14.60
2006,04,22,14,35,14.70
2006,04,22,14,36,14.60
2006,04,22,14,37,14.60
2006,04,22,14,38,14.60
2006,04,22,14,39,14.50
2006,04,22,14,40,14.50
2006,04,22,14,41,14.30
2006,04,22,14,42,14.20
2006,04,22,14,43,14.10
2006,04,22,14,44,14.00
2006,04,22,14,45,14.10
2006,04,22,14,46,14.10
2006,04,22,14,47,14.10
2006,04,22,14,48,14.10
2006,04,22,14,49,14.10
2006,04,22,14,50,14.20
2006,04,22,14,51,14.30
2006,04,22,14,52,14.30
2006,04,22,14,53,14.40
2006,04,22,14,54,14.50
2006,04,22,14,55,14.50
2006,04,22,14,56,14.50
2006,04,22,14,57,14.40
2006,04,22,14,58,14.40
2006,04,22,14,59,14.40
2006,04,22,15,00,14.50
2006,04,22,15,01,14.40
2006,04,22,15,02,14.40
2006,04,22,15,03,14.30
2006,04,22,15,04,14.40
2006,04,22,15,05,14.40
2006,04,22,15,06,14.40
2006,04,22,15,07,14.40
2006,04,22,15,08,14.40
2006,04,22,15,09,14.40
2006,04,22,15,10,14.40
2006,04,22,15,11,14.40
2006,04,22,15,12,14.50
2006,04,22,15,13,14.50
2006,04,22,15,14,14.60
2006,04,22,15,15,14.70
2006,04,22,15,16,14.70
2006,04,22,15,17,14.60
2006,04,22,15,18,14.30
2006,04,22,15,19,14.10
2006,04,22,15,20,14.10
2006,04,22,15,21,14.10
2006,04,22,15,22,14.20
2006,04,22,15,23,14.40
2006,04,22,15,24,14.40
2006,04,22,15,25,14.50
2006,04,22,15,26,14.50
2006,04,22,15,27,14.40
2006,04,22,15,28,14.30
2006,04,22,15,29,14.40
2006,04,22,15,30,14.50
2006,04,22,15,31,14.60
2006,04,22,15,32,14.60
2006,04,22,15,33,14.50
2006,04,22,15,34,14.40
2006,04,22,15,35,14.50
2006,04,22,15,36,14.50
2006,04,22,15,37,14.60
2006,04,22,15,38,14.60
2006,04,22,15,39,14.60
2006,04,22,15,40,14.70
2006,04,22,15,41,14.80
2006,04,22,15,42,14.80
2006,04,22,15,43,14.80
2006,04,22,15,44,14.80
2006,04,22,15,45,14.80
2006,04,22,15,46,14.90
2006,04,22,15,47,14.90
2006,04,22,15,48,14.90
2006,04,22,15,49,14.90
2006,04,22,15,50,15.00
2006,04,22,15,51,15.10
2006,04,22,15,52,15.10
2006,04,22,15,53,15.00
2006,04,22,15,54,14.90
2006,04,22,15,55,14.90
2006,04,22,15,56,14.90
2006,04,22,15,57,15.00
2006,04,22,15,58,15.10
2006,04,22,15,59,15.20
2006,04,22,16,00,15.10
2006,04,22,16,01,15.00
2006,04,22,16,02,14.90
2006,04,22,16,03,14.80
2006,04,22,16,04,14.80
2006,04,22,16,05,14.80
2006,04,22,16,06,14.80
2006,04,22,16,07,14.80
2006,04,22,16,08,14.80
2006,04,22,16,09,14.80
2006,04,22,16,10,14.80
2006,04,22,16,11,14.90
2006,04,22,16,12,14.90
2006,04,22,16,13,14.90
2006,04,22,16,14,15.00
2006,04,22,16,15,15.00
2006,04,22,16,16,14.90
2006,04,22,16,17,14.80
2006,04,22,16,18,14.70
2006,04,22,16,19,14.70
2006,04,22,16,20,14.70
2006,04,22,16,21,14.60
2006,04,22,16,22,14.60
2006,04,22,16,23,14.70
2006,04,22,16,24,14.80
2006,04,22,16,25,14.80
2006,04,22,16,26,14.80
2006,04,22,16,27,14.90
2006,04,22,16,28,14.80
2006,04,22,16,29,14.80
2006,04,22,16,30,14.80
2006,04,22,16,31,14.90
2006,04,22,16,32,15.00
2006,04,22,16,33,15.10
2006,04,22,16,34,15.10
2006,04,22,16,35,15.20
2006,04,22,16,36,15.20
2006,04,22,16,37,15.10
2006,04,22,16,38,15.10
2006,04,22,16,39,15.20
2006,04,22,16,40,15.30
2006,04,22,16,41,15.30
2006,04,22,16,42,15.30
2006,04,22,16,43,15.20
2006,04,22,16,44,15.10
2006,04,22,16,45,15.00
2006,04,22,16,46,15.00
2006,04,22,16,47,15.00
2006,04,22,16,48,15.00
2006,04,22,16,49,15.00
2006,04,22,16,50,15.10
2006,04,22,16,51,15.10
2006,04,22,16,52,15.10
2006,04,22,16,53,15.10
2006,04,22,16,54,15.10
2006,04,22,16,55,15.10
2006,04,22,16,56,15.10
2006,04,22,16,57,15.20
2006,04,22,16,58,15.30
2006,04,22,16,59,15.30
2006,04,22,17,00,15.30
2006,04,22,17,01,15.30
2006,04,22,17,02,15.40
2006,04,22,17,03,15.40
2006,04,22,17,04,15.40
2006,04,22,17,05,15.40
2006,04,22,17,06,15.40
2006,04,22,17,07,15.40
2006,04,22,17,08,15.40
2006,04,22,17,09,15.30
2006,04,22,17,10,15.20
2006,04,22,17,11,15.20
2006,04,22,17,12,15.30
2006,04,22,17,13,15.30
2006,04,22,17,14,15.30
2006,04,22,17,15,15.40
2006,04,22,17,16,15.40
2006,04,22,17,17,15.40
2006,04,22,17,18,15.30
2006,04,22,17,19,15.30
2006,04,22,17,20,15.30
2006,04,22,17,21,15.40
2006,04,22,17,22,15.50
2006,04,22,17,23,15.50
2006,04,22,17,24,15.50
2006,04,22,17,25,15.50
2006,04,22,17,26,15.50
2006,04,22,17,27,15.50
2006,04,22,17,28,15.40
2006,04,22,17,29,15.30
2006,04,22,17,30,15.20
2006,04,22,17,31,15.20
2006,04,22,17,32,15.20
2006,04,22,17,33,15.20
2006,04,22,17,34,15.20
2006,04,22,17,35,15.20
2006,04,22,17,36,15.20
2006,04,22,17,37,15.20
2006,04,22,17,38,15.20
2006,04,22,17,39,15.20
2006,04,22,17,40,15.30
2006,04,22,17,41,15.30
2006,04,22,17,42,15.30
2006,04,22,17,43,15.40
2006,04,22,17,44,15.40
2006,04,22,17,45,15.40
2006,04,22,17,46,15.40